Simultaneous Nadir Overpasses (SNOs) Predictions

Prediction of SNOs between NPP and TERRA Satellite Orbit:

Table of predicted SNOs for the next 14.0 days since TLE Epoch: 5/4/2024
Index Date (NPP) Time (NPP) Lat,Lon (NPP) SZA (NPP ) Date (TERRA) Time (TERRA) Lat,Lon (TERRA) SZA (TERRA ) Distance(km) Time Diff (sec)
1 05/04/2024 15:20:19 72.10, -57.00 55.89 05/04/2024 15:20:44 72.08, -57.00 55.86 2.99 25
2 05/04/2024 16:11:01 -72.01, 110.50 124.23 05/04/2024 16:10:07 -72.03, 110.57 124.20 3.11 54
3 05/07/2024 02:32:56 72.77, 133.57 55.91 05/07/2024 02:34:03 72.67, 135.65 55.73 69.74 67
4 05/07/2024 03:23:27 -72.11, -57.79 124.81 05/07/2024 03:23:36 -72.09, -57.73 124.83 2.80 9
5 05/07/2024 04:14:11 72.01, 109.70 55.08 05/07/2024 04:12:58 72.00, 109.78 55.08 2.95 73
6 05/09/2024 14:35:53 -72.22, 133.90 125.36 05/09/2024 14:37:04 -72.18, 134.02 125.41 5.46 71
7 05/09/2024 15:26:36 72.07, -58.52 54.48 05/09/2024 15:26:26 72.09, -58.49 54.50 1.78 10
8 05/09/2024 16:17:08 -71.45, 109.94 126.19 05/09/2024 16:15:59 -71.51, 108.21 126.05 61.42 69
9 05/12/2024 02:39:00 72.14, 133.25 53.93 05/12/2024 02:39:53 72.14, 133.20 53.92 1.57 53
10 05/12/2024 03:29:43 -72.08, -59.32 126.15 05/12/2024 03:29:17 -72.06, -59.28 126.17 2.76 26
11 05/14/2024 14:42:08 -72.15, 132.44 126.67 05/14/2024 14:42:44 -72.15, 132.47 126.68 1.17 36
12 05/14/2024 15:32:51 72.02, -59.99 53.18 05/14/2024 15:32:06 72.04, -60.06 53.21 3.30 45
13 05/17/2024 02:45:17 72.15, 131.66 52.75 05/17/2024 02:45:32 72.15, 131.73 52.75 2.42 15
14 05/17/2024 03:35:59 -72.03, -60.81 127.38 05/17/2024 03:34:57 -72.03, -60.82 127.38 0.73 62



Historial Predications of SNOs between NPP and TERRA
